Regional Weather Roundup
Issued by NWS

Home | Current Version | Previous Version | Text Only | Print | Product List | Glossary Off
Versions: 1 2 3 4 5 6 7 8 9 10 11 12 13 14 15 16 17 18 19 20 21 22 23 24 25 26 27 28 29 30 31 32 33 34 35 36 37 38 39 40 41 42 43 44 45 46 47 48 49 50

000
ASUS43 KFSD 212110
RWRSD

WEATHER ROUNDUP FOR SOUTH DAKOTA
NATIONAL WEATHER SERVICE SIOUX FALLS SD
400 PM CDT THU AUG 21 2014

NOTE: "FAIR" INDICATES FEW OR NO CLOUDS BELOW 12,000 FEET WITH NO
SIGNIFICANT WEATHER AND/OR OBSTRUCTIONS TO VISIBILITY.


SDZ001>005-009-010-012>017-212200-
NORTHWEST AND NORTH CENTRAL SOUTH DAKOTA

CITY           SKY/WX    TMP DP  RH WIND       PRES   REMARKS
BUFFALO          N/A     80  54  40 N6        29.90R
FAITH            N/A     85  56  37 N6        29.91F
MOBRIDGE       SUNNY     83  64  52 NW10      29.85R
$$

SDZ012>016-024>037-041>051-057-063-072>074-212200-
SOUTHWEST AND SOUTH CENTRAL SOUTH DAKOTA

CITY           SKY/WX    TMP DP  RH WIND       PRES   REMARKS
RAPID CTY ARPT MOSUNNY   80  54  40 CALM      29.96S
PIERRE         SUNNY     84  60  44 W10       29.86S
CUSTER         PTSUNNY   75  51  43 SE8       30.07S
ELLSWORTH AFB  MOSUNNY   82  56  39 S9        29.96R
PHILIP         SUNNY     88  51  28 VRB5      29.89S
PINE RIDGE     MOSUNNY   84  57  39 SE5       29.97S
WINNER         FAIR      88  59  37 NW8G18    29.89S
$$

SDZ004>011-016>023-039-040-212200-
NORTHEAST SOUTH DAKOTA

CITY           SKY/WX    TMP DP  RH WIND       PRES   REMARKS
ABERDEEN       MOSUNNY   84  68  58 NW15      29.82R
WATERTOWN      MOSUNNY   81  69  67 NW14      29.83R
SISSETON         N/A     81  70  69 NW7       29.79R
$$

SDZ017-020-022-023-036>040-048>070-212200-
SOUTHEAST SOUTH DAKOTA

CITY           SKY/WX    TMP DP  RH WIND       PRES   REMARKS
SIOUX FALLS    PTSUNNY   87  74  64 NW10      29.81R HX  95
HURON          SUNNY     87  66  49 NW15G23   29.81R
CHAMBERLAIN    MOSUNNY   84  66  54 N7        29.86F
MITCHELL       SUNNY     87  70  56 N9        29.83R
YANKTON        SUNNY     88  75  66 W9        29.80S HX  97
$$

ABBREVIATIONS USED IN REMARKS
   TC - TEMPERATURE IN CELSIUS
  WCI - WIND CHILL INDEX
   HX - HEAT INDEX
  VSB - VISIBILITY




USA.gov is the U.S. government's official web portal to all federal, state and local government web resources and services.